Weather in Coatzacoalcos

Mexico     18°08′16″N   94°26′04″W
temp.,
°C
wind,
m/s
gust,
m/s
humid.,
%
clouds,
%
prec.,
mm/h
press.,
hPa
HPBL,
m
21 april, wed
wed2101:00+24wnw358420 0.0 1015374
04:00+23sw359016 0.0 1014172
07:00+23ssw22905 0.0 1015120
10:00+26se117640 0.0 1017426
13:00+26n56776 0.0 1016544
16:00+27n78732 0.0 1014678
19:00+26n68780 0.0 1014654
22:00+26nnw57820 0.0 1016550
22 april, thu
thu2201:00+25nnw45865 0.3 1015358
04:00+25n2285100 1.9 1014284
07:00+24wnw1286100 2.1 1014146
10:00+26nnw2276100 0.1 1015424
13:00+27n447577 0.1 1014543
16:00+27n557455 0.0 1011459
19:00+27n568177 0.0 1010412
22:00+26n358744 0.0 1012186
23 april, fri
fri2301:00+26nne2488100 0.0 1012166
04:00+26nnw228999 0.0 101080
07:00+25s0190100 0.0 101087
10:00+27s3477100 0.0 1011449
13:00+31ene456290 0.0 1009631
16:00+29ne7672100 0.0 1006531
19:00+28ne367472 0.0 1005148
22:00+27wsw3570100 0.0 100885
24 april, sat
sat2401:00+28sw6126898 0.0 1008360
04:00+28ssw8146597 0.0 1006525
07:00+27s6127084 0.0 1007569
10:00+30s476062 0.0 1008403
13:00+32ese47547 0.0 1007698
16:00+32nne355967 0.0 1006929
19:00+27nnw5980100 0.0 1007243
22:00+28nw3473100 0.0 101064
25 april, sun
sun2501:00+28wsw5116792 0.0 1011376
04:00+27w2475100 0.0 101099
07:00+26nw358410 0.0 1011211
10:00+28nnw557533 0.1 1013601
13:00+27nnw8980100 0.1 1012386
16:00+27n8118120 0.0 1010550
19:00+26n69855 0.0 1011569
22:00+26n69855 0.0 1012484